Flag for Canada Weather past 2 weeks in Sherbrooke, Quebec, Canada

Now
3 °F

Clear.


Feels Like: -6 °F
Forecast: -7 / 21 °F
Wind: 5 mph from Northwest

Location: Sherbrooke

Current Time: Mar 3, 2015 at 4:20:06 AM

Latest Report: Mar 3, 2015 at 4:00 AM


Visibility: 9 mi

Pressure: 30.33 "Hg

Humidity: 66%

Dew point: -6 °F

Location of SherbrookeLocation

Historic Weather in Sherbrooke — Graph

°F

Sherbrooke temperature yesterday

Maximum temperature yesterday: 23 °F (at 3:00 PM)
Minimum temperature yesterday: 9 °F (at 11:00 PM)
Average temperature yesterday: 19 °F

Past Weeks' High & Low Weather Summary

 TemperatureHumidityPressure
High28 °F (Mar 1, 2:00 PM)100% (Feb 21, 11:00 PM)30.71 "Hg (Feb 21, 11:00 PM)
Low-27 °F (Feb 24, 4:00 AM)31% (Mar 1, 1:00 PM)29.56 "Hg (Feb 19, 3:00 PM)
Average5 °F69%30.09 "Hg
* Reported Feb 16 3:00 AM — Mar 3 3:00 AM, Sherbrooke, Weather by CustomWeather, © 2015

Note: Actual official high and low records may vary slightly from our data, if they occured in-between our weather recording intervals... More about our weather records

Advertising

Sherbrooke weather history for previous 24 hours

 ConditionsComfort  
Time TempWeatherWind HumidityBarometerVisibility
3:00 AM
Tue, Mar 3
1 °FClear.2 mph71%30.32 "Hg9 mi
2:00 AM5 °FClear.5 mph60%30.32 "Hg9 mi
1:00 AM7 °FClear.3 mph61%30.30 "Hg9 mi
12:00 AM9 °FClear.3 mph56%30.28 "Hg9 mi
11:00 PM
Mon, Mar 2
9 °FClear.5 mph61%30.26 "Hg9 mi
10:00 PM10 °FClear.8 mph61%30.24 "Hg9 mi
9:00 PM14 °FClear.8 mph57%30.21 "Hg9 mi
8:00 PM16 °FLight snow. Clear.13 mph57%30.16 "Hg9 mi
7:58 PM16 °FLight snow. Clear.16 mph57%30.15 "Hg8 mi
7:00 PM18 °FLight snow. Mostly cloudy.18 mph68%30.11 "Hg2 mi
6:04 PM19 °FLight snow. Mostly cloudy.18 mph86%30.06 "Hg2 mi
5:01 PM19 °FHeavy snow. Mostly cloudy.26 mph93%30.00 "Hg0 mi
4:00 PM21 °FLight snow. Broken clouds.18 mph74%29.96 "Hg6 mi
3:00 PM23 °FLight snow. Mostly cloudy.17 mph68%29.93 "Hg9 mi
2:02 PM21 °FLight snow. Overcast.23 mph74%29.91 "Hg5 mi
1:04 PM21 °FLight snow. Overcast.18 mph74%29.90 "Hg5 mi
12:00 PM21 °FLight snow. Mostly cloudy.16 mph80%29.91 "Hg5 mi
11:00 AM21 °FLight snow. Partly sunny.15 mph80%29.92 "Hg9 mi
10:00 AM21 °FLight snow. Mostly cloudy.16 mph80%29.92 "Hg9 mi
9:00 AM21 °FLight snow. Overcast.20 mph86%29.92 "Hg1 mi
8:00 AM19 °FLight snow. Overcast.9 mph93%29.92 "Hg1 mi
7:00 AM19 °FLight snow. More clouds than sun.6 mph93%29.92 "Hg2 mi
6:02 AM19 °FLight snow. Mostly cloudy.8 mph93%29.92 "Hg3 mi
5:00 AM19 °FLight snow. Mostly cloudy.6 mph100%29.92 "Hg2 mi
4:00 AM21 °FLight snow. Overcast.7 mph93%29.93 "Hg2 mi
Weather by CustomWeather, © 2015

See weather overviewHow to use our weather pages